When you browse on this site, cookies collect data to enhance your experience and personalize the content and advertising you see.
Visit our Privacy Policy to learn more. By continuing to use the site, you agree to this use of cookies and data.
  • In Hungary
  • List of Countries
  • For 7 days
  • Water Temperature
  • Satellite Maps
  • Weather Map
  • News
  • Weather Widgets
  • user-avatar
    Login

    Hourly Weather Domanovo

    Today, 19 February, Tuesday

    Time Temperature Precipitation Wind Pressure Humidity
    00:00 -7°C° 0 mm 1 mps 752 mmHg 87%
    01:00 -8°C° 0 mm 2 mps 752 mmHg 88%
    02:00 -8°C° 0 mm 2 mps 752 mmHg 88%
    03:00 -9°C° 0 mm 3 mps 751 mmHg 88%
    04:00 -9°C° 0 mm 3 mps 751 mmHg 89%
    05:00 -9°C° 0 mm 3 mps 750 mmHg 89%
    06:00 -10°C° 0 mm 4 mps 750 mmHg 89%
    07:00 -10°C° 0 mm 4 mps 750 mmHg 88%
    08:00 -10°C° 0 mm 4 mps 750 mmHg 87%
    09:00 -8°C° 0 mm 5 mps 749 mmHg 85%
    10:00 -6°C° 0 mm 5 mps 749 mmHg 83%
    11:00 -5°C° 0 mm 5 mps 748 mmHg 81%
    12:00 -4°C° 0 mm 5 mps 748 mmHg 81%
    13:00 -3°C° 0 mm 6 mps 747 mmHg 82%
    14:00 -2°C° 0 mm 6 mps 747 mmHg 82%
    15:00 -3°C° 0 mm 6 mps 746 mmHg 83%
    16:00 -3°C° 0 mm 6 mps 745 mmHg 85%
    17:00 -4°C° 0 mm 6 mps 744 mmHg 86%
    18:00 -4°C° 0 mm 6 mps 744 mmHg 86%
    19:00 -4°C° 0 mm 6 mps 743 mmHg 86%
    20:00 -4°C° 0 mm 6 mps 743 mmHg 85%
    21:00 -4°C° 0 mm 6 mps 742 mmHg 87%
    22:00 -4°C° 0 mm 6 mps 742 mmHg 88%
    23:00 -3°C° 0 mm 7 mps 741 mmHg 89%

    Tomorrow, 20 February, Wednesday

    Time Temperature Precipitation Wind Pressure Humidity
    00:00 -3°C° 0 mm 6 mps 740 mmHg 91%
    01:00 -2°C° 0 mm 6 mps 740 mmHg 93%
    02:00 -2°C° 0 mm 6 mps 740 mmHg 94%
    03:00 -2°C° 0 mm 6 mps 739 mmHg 94%
    04:00 -1°C° 0 mm 5 mps 739 mmHg 94%
    05:00 -1°C° 0 mm 5 mps 738 mmHg 95%
    06:00 -1°C° 0.3 mm 5 mps 738 mmHg 95%
    07:00 -1°C° 0.3 mm 4 mps 738 mmHg 95%
    08:00 -1°C° 0.3 mm 4 mps 738 mmHg 95%
    09:00 -1°C° 0 mm 4 mps 738 mmHg 97%
    10:00 -1°C° 0 mm 5 mps 738 mmHg 98%
    11:00 -1°C° 0 mm 5 mps 738 mmHg 99%
    12:00 -1°C° 0 mm 5 mps 738 mmHg 99%
    13:00 0°C° 0 mm 5 mps 738 mmHg 99%
    14:00 0°C° 0 mm 5 mps 737 mmHg 99%
    15:00 0°C° 0 mm 5 mps 737 mmHg 96%
    16:00 0°C° 0 mm 5 mps 737 mmHg 94%
    17:00 -1°C° 0 mm 6 mps 737 mmHg 91%
    18:00 -1°C° 0.3 mm 6 mps 736 mmHg 91%
    19:00 -1°C° 0.3 mm 6 mps 736 mmHg 91%
    20:00 -1°C° 0.3 mm 7 mps 736 mmHg 91%
    21:00 -2°C° 0.1 mm 7 mps 736 mmHg 87%
    22:00 -3°C° 0.1 mm 7 mps 736 mmHg 83%
    23:00 -4°C° 0.1 mm 7 mps 736 mmHg 78%

    Day after tomorrow, 21 February, Thursday

    Time Temperature Precipitation Wind Pressure Humidity
    00:00 -6°C° 0 mm 7 mps 736 mmHg 81%
    01:00 -6°C° 0 mm 7 mps 737 mmHg 83%
    02:00 -6°C° 0 mm 6 mps 737 mmHg 86%
    03:00 -7°C° 0.1 mm 7 mps 737 mmHg 85%
    04:00 -7°C° 0.1 mm 7 mps 737 mmHg 84%
    05:00 -6°C° 0.1 mm 7 mps 737 mmHg 83%
    06:00 -7°C° 0 mm 7 mps 738 mmHg 83%
    07:00 -7°C° 0 mm 7 mps 738 mmHg 83%
    08:00 -7°C° 0 mm 7 mps 739 mmHg 82%
    09:00 -7°C° 0 mm 7 mps 739 mmHg 81%
    10:00 -7°C° 0 mm 8 mps 739 mmHg 79%
    11:00 -6°C° 0 mm 8 mps 740 mmHg 78%
    12:00 -7°C° 0 mm 8 mps 740 mmHg 76%
    13:00 -7°C° 0 mm 8 mps 741 mmHg 75%
    14:00 -7°C° 0 mm 7 mps 741 mmHg 74%
    15:00 -8°C° 0 mm 7 mps 741 mmHg 76%
    16:00 -8°C° 0 mm 6 mps 742 mmHg 78%
    17:00 -8°C° 0 mm 6 mps 742 mmHg 80%
    18:00 -9°C° 0 mm 6 mps 743 mmHg 80%
    19:00 -8°C° 0 mm 5 mps 743 mmHg 81%
    20:00 -10°C° 0 mm 5 mps 744 mmHg 81%
    21:00 -10°C° 0 mm 5 mps 744 mmHg 81%
    22:00 -10°C° 0 mm 5 mps 745 mmHg 81%
    23:00 -10°C° 0 mm 6 mps 745 mmHg 81%

    22 February, Friday

    Time Temperature Precipitation Wind Pressure Humidity
    00:00 -11°C° 0 mm 5 mps 746 mmHg 81%
    01:00 -12°C° 0 mm 5 mps 747 mmHg 81%
    02:00 -12°C° 0 mm 5 mps 747 mmHg 81%
    03:00 -13°C° 0 mm 5 mps 748 mmHg 81%
    04:00 -13°C° 0 mm 5 mps 749 mmHg 81%
    05:00 -14°C° 0 mm 5 mps 749 mmHg 81%
    06:00 -15°C° 0 mm 6 mps 750 mmHg 80%
    07:00 -15°C° 0 mm 6 mps 751 mmHg 80%
    08:00 -15°C° 0 mm 6 mps 752 mmHg 80%
    09:00 -15°C° 0 mm 6 mps 752 mmHg 76%
    10:00 -14°C° 0 mm 7 mps 753 mmHg 73%
    11:00 -13°C° 0 mm 7 mps 753 mmHg 70%
    12:00 -12°C° 0 mm 7 mps 754 mmHg 70%
    13:00 -12°C° 0 mm 7 mps 754 mmHg 69%
    14:00 -11°C° 0 mm 7 mps 754 mmHg 69%
    15:00 -11°C° 0 mm 7 mps 754 mmHg 71%
    16:00 -11°C° 0 mm 6 mps 754 mmHg 73%
    17:00 -11°C° 0 mm 5 mps 755 mmHg 75%
    18:00 -12°C° 0 mm 5 mps 755 mmHg 76%
    19:00 -12°C° 0 mm 5 mps 755 mmHg 77%
    20:00 -12°C° 0 mm 5 mps 755 mmHg 78%
    21:00 -12°C° 0 mm 5 mps 756 mmHg 80%
    22:00 -12°C° 0 mm 5 mps 756 mmHg 81%
    23:00 -13°C° 0 mm 5 mps 756 mmHg 83%

    23 February, Saturday

    Time Temperature Precipitation Wind Pressure Humidity
    00:00 -13°C° 0 mm 5 mps 757 mmHg 83%
    01:00 -14°C° 0 mm 4 mps 757 mmHg 84%
    02:00 -14°C° 0 mm 4 mps 757 mmHg 84%
    03:00 -15°C° 0 mm 4 mps 758 mmHg 85%
    04:00 -14°C° 0 mm 3 mps 758 mmHg 87%
    05:00 -15°C° 0 mm 3 mps 758 mmHg 88%
    06:00 -15°C° 0 mm 3 mps 758 mmHg 88%
    07:00 -15°C° 0 mm 3 mps 758 mmHg 89%
    08:00 -15°C° 0 mm 3 mps 759 mmHg 89%
    09:00 -14°C° 0 mm 3 mps 759 mmHg 86%
    10:00 -13°C° 0 mm 3 mps 759 mmHg 83%
    11:00 -12°C° 0 mm 4 mps 759 mmHg 80%
    12:00 -11°C° 0 mm 4 mps 758 mmHg 78%
    13:00 -10°C° 0 mm 4 mps 758 mmHg 76%
    14:00 -9°C° 0 mm 3 mps 758 mmHg 74%
    15:00 -9°C° 0 mm 3 mps 758 mmHg 76%
    16:00 -9°C° 0 mm 3 mps 758 mmHg 79%
    17:00 -9°C° 0 mm 2 mps 758 mmHg 82%
    18:00 -9°C° 0 mm 2 mps 758 mmHg 82%
    19:00 -10°C° 0 mm 2 mps 758 mmHg 83%
    20:00 -12°C° 0 mm 2 mps 758 mmHg 83%
    21:00 -12°C° 0 mm 2 mps 759 mmHg 84%
    22:00 -12°C° 0 mm 2 mps 759 mmHg 85%
    23:00 -13°C° 0 mm 2 mps 759 mmHg 85%

    24 February, Sunday

    Time Temperature Precipitation Wind Pressure Humidity
    00:00 -13°C° 0 mm 2 mps 760 mmHg 85%
    01:00 -14°C° 0 mm 2 mps 760 mmHg 86%
    02:00 -14°C° 0 mm 2 mps 760 mmHg 86%
    03:00 -12°C° 0 mm 1 mps 760 mmHg 85%
    04:00 -12°C° 0 mm 1 mps 760 mmHg 85%
    05:00 -13°C° 0 mm 1 mps 760 mmHg 85%
    06:00 -12°C° 0 mm 1 mps 761 mmHg 85%
    07:00 -12°C° 0 mm 1 mps 761 mmHg 85%
    08:00 -12°C° 0 mm 1 mps 762 mmHg 85%
    09:00 -11°C° 0 mm 1 mps 762 mmHg 81%
    10:00 -9°C° 0 mm 1 mps 762 mmHg 77%
    11:00 -8°C° 0 mm 1 mps 762 mmHg 72%
    12:00 -8°C° 0 mm 1 mps 762 mmHg 71%
    13:00 -7°C° 0 mm 1 mps 761 mmHg 70%
    14:00 -6°C° 0 mm 0 mps 761 mmHg 68%
    15:00 -7°C° 0 mm 0 mps 760 mmHg 72%
    16:00 -8°C° 0 mm 0 mps 760 mmHg 76%
    17:00 -8°C° 0 mm 1 mps 759 mmHg 80%
    18:00 -9°C° 0 mm 1 mps 759 mmHg 81%
    19:00 -9°C° 0 mm 1 mps 759 mmHg 81%
    20:00 -12°C° 0 mm 2 mps 759 mmHg 82%
    21:00 -12°C° 0 mm 2 mps 758 mmHg 82%
    22:00 -13°C° 0 mm 3 mps 757 mmHg 82%
    23:00 -13°C° 0 mm 3 mps 756 mmHg 82%
    Show more